Showing default

NOAA 6, 11416

Orbit data source: Space-Track

NOAA 6, 11416 is a payload satellite owned by NOAA (US) in SSO that was launched on Wed, 27 Jun 1979 UTC via an ATLAS F launch vehicle from the Air Force Western Test Range (AFWTR). Payload-class satellites include a variety of spacecraft equipped with specific instruments for various scientific and technological missions. These include communications satellites like Starlink; space stations such as the ISS; scientific satellites like the Hubble; Earth observation satellites from companies like Planet Labs, Umbra, and HawkEye 360; GPS; miniature CubeSats for education and research; and military/defense satellites.

Loading next visibility...
Identifier
11416, 1979-057A
Orbit
SSO
Country
Flag of USUS
Related business
Manufacturer
RCA/East Windsor
Mission
Non-operational spacecraft
Bus & Motor
TIROS N, STAR 37S
Mass
1,418 kg wet, 684 kg dry
Launch date (UTC)
1979-06-27 (46 years ago)
Launch vehicle
ATLAS F
Launch site
Air Force Western Test Range (AFWTR)
Object type
Payload
Rocket body
Debris
Shape & HBR
Unknown
Radar Cross Section
Large (>1 m²)

Expand to show TLE details & history
Last TLE update: 20 hours ago

TLE from 20 hours ago
0 NOAA 6
1 11416U 79057A   25304.66096433  .00000452  00000-0  17310-3 0  9998
2 11416  98.5893 330.5287 0009273 209.9172 150.1484 14.35303510418175
Epoch: 2025-10-31T15:51Z
TLE epoch observation values (Epoch: 2025-10-31T15:51:47.318Z)
Latitude
-0.00004°
Longitude
52.37935°
Altitude
782.752 km
Speed
7.459 km/s
True Right ascension
22h 02m 06s
True Declination
0° 00' 00"
Sunlit
Object was in daylight at epoch
Visualization orbit readout
Latitude
Unknown
Longitude
Unknown
Altitude
Unknown
Speed
Unknown
Apparent Right ascension
Unknown
Apparent Declination
Unknown
Sunlit
N/A
Visualization observer readout
Local Sidereal Time
07:37:40
Azimuth
Unknown
Elevation
Unknown
Doppler factor
Unknown
Orbital elements
Apogee altitude
777.82 km
Perigee altitude
764.561 km
Semi-major axis
7,149.327 km
Eccentricity
0.00093
Inclination
98.5893°
RAAN
330.5287°
Arg. of periapsis
209.9172°
True anomaly
150.20124°
Mean anomaly
150.1484°
Eccentric anomaly
150.17482°
Mean motion
3.59042 °/min
Orbital period
100.27 mins
BSTAR
0.0001731
Loading maneuver chart data...
Computing Atmospheric mass density...
Loading historical data...
Loading historical data...
Loading historical data...
Loading historical data...
Loading historical data...
Loading historical data...
Loading historical data...

Documentation

Showing up to 5 results
|